Content
SEND FEEDBACK

Daily
Averages
Monthly
Summary
Switzerland

GAMS, SWITZERLAND


Home > Europe > Switzerland
Elevation: 8202 feet     Latitude: 47 15N     Longitude: 009 21E

WEATHER
 
SELECT A DAY
Number of Records: 104,216;   Date Range: 12/15/98 - 9/20/14
 
SHARE

PRINT THIS DATA

[ ← Previous Day ]
WEATHER ALMANAC - JANUARY 23, 2013
[ Next Day → ]
[ °C ]   °F
Weather ElementAverageHighLow
Temperature27.8 °F35.6 °F (1:20 pm)19.4 °F (2:20 am)
Dewpoint22.9 °F28.4 °F (11:50 am)17.6 °F (2:20 am)
Humidity82.2 %93 % (12:50 am)65 % (3:20 pm)
Barometer29.67 in29.71 in (10:20 pm)29.65 in (5:50 am)
Wind Speed2.6 mph6.9 mph (11:50 pm)
Weather ElementAverage
Visibility4.4 mi
Wind DirectionS (180.4 °)

Weather ElementTotal
Precipitation---
Heating Degree Days37.5 (Base 65)
Averaged from 47 records on January 23, 2013
WEATHER CONDITIONS BREAKOUT
WIND DIRECTION BREAKOUT
WEATHER BY HOUR - JANUARY 23, 2013
[ °C ]   °F
Local TimeTemperatureDewpointHumidityBarometerVisibilityWind DirectionWind SpeedGust SpeedPrecipitationEventsConditions
12:50 AM23.0 °F21.2 °F93 %29.68 in1.1 miVariable1.2 mphFogLight Freezing Fog
1:20 AM23.0 °F21.2 °F93 %29.68 in1.5 miCalmFogLight Freezing Fog
1:50 AM21.2 °F19.4 °F93 %29.68 in3.7 miSW (220°)2.3 mph
2:20 AM19.4 °F17.6 °F93 %29.68 in0.6 miSSW (210°)2.3 mphFogLight Freezing Fog
2:50 AM23.0 °F21.2 °F93 %29.68 in0.9 miSSE (150°)1.2 mphFogLight Freezing Fog
3:20 AM24.8 °F23.0 °F93 %29.68 inEast (90°)2.3 mphScattered Clouds
3:50 AM23.0 °F21.2 °F93 %29.68 in1.6 miSSE (150°)1.2 mphMist
4:20 AM21.2 °F19.4 °F93 %29.68 in5.0 miSW (220°)2.3 mph
4:50 AM24.8 °F21.2 °F86 %29.68 in3.1 miVariable1.2 mph
5:20 AM21.2 °F17.6 °F86 %29.68 in3.7 miSSW (210°)1.2 mph
5:50 AM24.8 °F23.0 °F93 %29.65 in3.1 miVariable1.2 mph
6:20 AM21.2 °F17.6 °F86 %29.65 inSW (230°)2.3 mphClear
6:50 AM23.0 °F19.4 °F86 %29.65 inVariable1.2 mphClear
7:20 AM24.8 °F21.2 °F86 %29.65 inVariable1.2 mphClear
7:50 AM23.0 °F19.4 °F86 %29.68 in6.2 miSW (220°)1.2 mphPartly Cloudy
8:20 AM23.0 °F21.2 °F93 %29.68 in6.2 miCalmPartly Cloudy
8:50 AM23.0 °F19.4 °F86 %29.68 in6.2 miCalmPartly Cloudy
9:20 AM24.8 °F21.2 °F86 %29.68 in6.2 miVariable1.2 mphPartly Cloudy
9:50 AM30.2 °F24.8 °F80 %29.68 inSE (140°)2.3 mphClear
10:20 AM28.4 °F24.8 °F86 %29.68 in6.2 miCalmPartly Cloudy
10:50 AM30.2 °F26.6 °F86 %29.68 in6.2 miWNW (290°)1.2 mphPartly Cloudy
11:20 AM32.0 °F26.6 °F80 %29.68 in4.3 miWNW (290°)3.5 mphScattered Clouds
11:50 AM32.0 °F28.4 °F87 %29.68 in4.3 miWNW (290°)2.3 mphScattered Clouds
12:20 PM32.0 °F26.6 °F80 %29.65 in5.0 miWest (280°)4.6 mphPartly Cloudy
12:50 PM33.8 °F28.4 °F81 %29.65 in5.6 miWNW (290°)3.5 mph
1:20 PM35.6 °F28.4 °F75 %29.65 inNW (310°)4.6 mphClear
1:50 PM35.6 °F26.6 °F70 %29.65 inNW (310°)4.6 mphClear
2:20 PM35.6 °F26.6 °F70 %29.65 inWNW (290°)4.6 mphClear
2:50 PM35.6 °F26.6 °F70 %29.65 inWNW (290°)2.3 mphClear
3:20 PM35.6 °F24.8 °F65 %29.65 inWNW (290°)5.8 mphClear
3:50 PM35.6 °F24.8 °F65 %29.65 inWest (270°)4.6 mphClear
4:20 PM33.8 °F24.8 °F70 %29.65 inWest (280°)5.8 mphClear
4:50 PM32.0 °F24.8 °F75 %29.65 inWSW (240°)3.5 mphClear
5:20 PM32.0 °F23.0 °F69 %29.68 inWest (260°)3.5 mphClear
5:50 PM24.8 °F19.4 °F80 %29.68 inSSW (210°)3.5 mphClear
6:20 PM30.2 °F23.0 °F75 %29.68 inVariable1.2 mphClear
6:50 PM30.2 °F23.0 °F75 %29.68 inVariable1.2 mphClear
7:20 PM28.4 °F23.0 °F80 %29.68 inSW (220°)2.3 mphClear
7:50 PM26.6 °F21.2 °F80 %29.68 inSW (220°)2.3 mphClear
8:20 PM26.6 °F21.2 °F80 %29.68 inSW (230°)2.3 mphClear
8:50 PM26.6 °F21.2 °F80 %29.68 inSW (230°)1.2 mphClear
9:20 PM24.8 °F21.2 °F86 %29.68 inSW (230°)2.3 mphClear
9:50 PM26.6 °F21.2 °F80 %29.68 in6.2 miWSW (250°)3.5 mph
10:20 PM30.2 °F24.8 °F80 %29.71 in6.2 miWest (260°)4.6 mph
10:50 PM30.2 °F24.8 °F80 %29.71 in6.2 miWest (270°)5.8 mphScattered Clouds
11:20 PM30.2 °F24.8 °F80 %29.71 in6.2 miWest (260°)3.5 mph
11:50 PM30.2 °F24.8 °F80 %29.71 in5.0 miWest (280°)6.9 mph
Hourly data recorded from LSZR, located miles away from Gams, Switzerland







STORIES FROM OUR PARTNERS